When you browse on this site, cookies collect data to enhance your experience and personalize the content and advertising you see.
Visit our Privacy Policy to learn more. By continuing to use the site, you agree to this use of cookies and data.
  • In Czech Republic
  • List of Countries
  • For 7 days
  • Water Temperature
  • Weather Map
  • Weather Widgets
  • user-avatar
    Login

    Hourly Weather Agustin Codazzi

    Today, 22 November, Friday

    Time Temperature Precipitation Wind Pressure Humidity
    00:00 +24°C° 0 mm 1 mps 739 mmHg 91%
    01:00 +24°C° 0 mm 1 mps 739 mmHg 91%
    02:00 +24°C° 0 mm 1 mps 739 mmHg 89%
    03:00 +24°C° 0 mm 1 mps 739 mmHg 88%
    04:00 +23°C° 0 mm 1 mps 738 mmHg 86%
    05:00 +24°C° 0 mm 1 mps 739 mmHg 84%
    06:00 +25°C° 0 mm 1 mps 739 mmHg 82%
    07:00 +25°C° 0 mm 1 mps 740 mmHg 80%
    08:00 +27°C° 0 mm 1 mps 740 mmHg 75%
    09:00 +29°C° 0 mm 1 mps 741 mmHg 69%
    10:00 +31°C° 0 mm 1 mps 741 mmHg 63%
    11:00 +32°C° 0.3 mm 1 mps 740 mmHg 63%
    12:00 +32°C° 0.3 mm 1 mps 739 mmHg 63%
    13:00 +33°C° 0.3 mm 1 mps 738 mmHg 64%
    14:00 +32°C° 0.7 mm 1 mps 738 mmHg 70%
    15:00 +31°C° 0.7 mm 1 mps 737 mmHg 76%
    16:00 +30°C° 0.7 mm 1 mps 737 mmHg 81%
    17:00 +28°C° 0.7 mm 1 mps 737 mmHg 85%
    18:00 +27°C° 0.7 mm 1 mps 738 mmHg 89%
    19:00 +25°C° 0.7 mm 1 mps 738 mmHg 93%
    20:00 +25°C° 0.2 mm 1 mps 739 mmHg 93%
    21:00 +25°C° 0.2 mm 1 mps 739 mmHg 92%
    22:00 +24°C° 0.2 mm 1 mps 740 mmHg 92%
    23:00 +24°C° 0 mm 1 mps 739 mmHg 91%

    Tomorrow, 23 November, Saturday

    Time Temperature Precipitation Wind Pressure Humidity
    00:00 +24°C° 0 mm 1 mps 739 mmHg 90%
    01:00 +23°C° 0 mm 1 mps 739 mmHg 89%
    02:00 +23°C° 0 mm 1 mps 739 mmHg 88%
    03:00 +23°C° 0 mm 1 mps 739 mmHg 86%
    04:00 +23°C° 0 mm 1 mps 738 mmHg 85%
    05:00 +24°C° 0 mm 1 mps 739 mmHg 83%
    06:00 +24°C° 0 mm 1 mps 740 mmHg 81%
    07:00 +25°C° 0 mm 1 mps 740 mmHg 79%
    08:00 +27°C° 0 mm 1 mps 741 mmHg 73%
    09:00 +29°C° 0 mm 1 mps 741 mmHg 68%
    10:00 +31°C° 0 mm 1 mps 741 mmHg 62%
    11:00 +32°C° 0.2 mm 1 mps 740 mmHg 63%
    12:00 +32°C° 0.2 mm 1 mps 740 mmHg 63%
    13:00 +33°C° 0.2 mm 1 mps 739 mmHg 63%
    14:00 +32°C° 0.4 mm 1 mps 738 mmHg 66%
    15:00 +31°C° 0.4 mm 1 mps 738 mmHg 69%
    16:00 +31°C° 0.4 mm 1 mps 738 mmHg 71%
    17:00 +29°C° 0.5 mm 1 mps 738 mmHg 78%
    18:00 +27°C° 0.5 mm 1 mps 738 mmHg 85%
    19:00 +26°C° 0.5 mm 1 mps 739 mmHg 92%
    20:00 +25°C° 0.2 mm 1 mps 739 mmHg 92%
    21:00 +25°C° 0.2 mm 1 mps 740 mmHg 92%
    22:00 +25°C° 0.2 mm 1 mps 740 mmHg 92%
    23:00 +24°C° 0 mm 1 mps 740 mmHg 91%

    Day after tomorrow, 24 November, Sunday

    Time Temperature Precipitation Wind Pressure Humidity
    00:00 +24°C° 0 mm 1 mps 739 mmHg 89%
    01:00 +24°C° 0 mm 1 mps 739 mmHg 88%
    02:00 +23°C° 0 mm 1 mps 739 mmHg 86%
    03:00 +23°C° 0 mm 1 mps 738 mmHg 83%
    04:00 +23°C° 0 mm 1 mps 738 mmHg 81%
    05:00 +23°C° 0 mm 1 mps 739 mmHg 77%
    06:00 +24°C° 0 mm 1 mps 739 mmHg 74%
    07:00 +24°C° 0 mm 1 mps 740 mmHg 70%
    08:00 +27°C° 0 mm 1 mps 740 mmHg 65%
    09:00 +29°C° 0 mm 1 mps 740 mmHg 60%
    10:00 +31°C° 0 mm 1 mps 740 mmHg 55%
    11:00 +32°C° 0 mm 1 mps 740 mmHg 54%
    12:00 +33°C° 0 mm 1 mps 739 mmHg 52%
    13:00 +34°C° 0 mm 1 mps 738 mmHg 51%
    14:00 +33°C° 0.1 mm 1 mps 738 mmHg 56%
    15:00 +32°C° 0.1 mm 1 mps 737 mmHg 61%
    16:00 +31°C° 0.1 mm 1 mps 737 mmHg 66%
    17:00 +30°C° 0.1 mm 1 mps 737 mmHg 71%
    18:00 +28°C° 0.1 mm 1 mps 737 mmHg 77%
    19:00 +27°C° 0.1 mm 1 mps 738 mmHg 82%
    20:00 +26°C° 0 mm 1 mps 738 mmHg 82%
    21:00 +26°C° 0 mm 1 mps 738 mmHg 83%
    22:00 +25°C° 0 mm 1 mps 739 mmHg 83%
    23:00 +25°C° 0 mm 1 mps 738 mmHg 82%

    25 November, Monday

    Time Temperature Precipitation Wind Pressure Humidity
    00:00 +24°C° 0 mm 1 mps 738 mmHg 80%
    01:00 +24°C° 0 mm 1 mps 738 mmHg 78%
    02:00 +24°C° 0 mm 1 mps 737 mmHg 76%
    03:00 +24°C° 0 mm 1 mps 737 mmHg 74%
    04:00 +23°C° 0 mm 1 mps 737 mmHg 72%
    05:00 +24°C° 0 mm 1 mps 738 mmHg 71%
    06:00 +25°C° 0 mm 1 mps 738 mmHg 70%
    07:00 +25°C° 0 mm 1 mps 738 mmHg 69%
    08:00 +27°C° 0 mm 1 mps 738 mmHg 64%
    09:00 +29°C° 0 mm 1 mps 739 mmHg 60%
    10:00 +32°C° 0 mm 1 mps 739 mmHg 56%
    11:00 +32°C° 0.1 mm 1 mps 738 mmHg 57%
    12:00 +33°C° 0.1 mm 1 mps 737 mmHg 57%
    13:00 +33°C° 0.1 mm 1 mps 736 mmHg 58%
    14:00 +33°C° 0.4 mm 1 mps 736 mmHg 61%
    15:00 +32°C° 0.4 mm 1 mps 735 mmHg 64%
    16:00 +32°C° 0.4 mm 1 mps 735 mmHg 67%
    17:00 +30°C° 0.2 mm 1 mps 735 mmHg 73%
    18:00 +29°C° 0.2 mm 1 mps 736 mmHg 78%
    19:00 +27°C° 0.2 mm 1 mps 736 mmHg 83%
    20:00 +27°C° 0 mm 1 mps 737 mmHg 84%
    21:00 +26°C° 0 mm 1 mps 737 mmHg 84%
    22:00 +26°C° 0 mm 1 mps 738 mmHg 85%
    23:00 +25°C° 0 mm 1 mps 737 mmHg 83%

    26 November, Tuesday

    Time Temperature Precipitation Wind Pressure Humidity
    00:00 +25°C° 0 mm 1 mps 737 mmHg 82%
    01:00 +25°C° 0 mm 1 mps 737 mmHg 80%
    02:00 +25°C° 0 mm 1 mps 737 mmHg 80%
    03:00 +25°C° 0 mm 1 mps 737 mmHg 79%
    04:00 +24°C° 0 mm 1 mps 737 mmHg 78%
    05:00 +25°C° 0 mm 1 mps 737 mmHg 77%
    06:00 +26°C° 0 mm 1 mps 738 mmHg 76%
    07:00 +24°C° 0 mm 0 mps 738 mmHg 74%
    08:00 +28°C° 0 mm 1 mps 738 mmHg 70%
    09:00 +30°C° 0 mm 1 mps 738 mmHg 65%
    10:00 +32°C° 0 mm 1 mps 739 mmHg 60%
    11:00 +33°C° 0.2 mm 1 mps 738 mmHg 61%
    12:00 +33°C° 0.2 mm 1 mps 737 mmHg 61%
    13:00 +34°C° 0.2 mm 1 mps 736 mmHg 61%
    14:00 +33°C° 0.5 mm 1 mps 736 mmHg 64%
    15:00 +33°C° 0.5 mm 1 mps 736 mmHg 66%
    16:00 +32°C° 0.5 mm 1 mps 735 mmHg 69%
    17:00 +31°C° 0.4 mm 1 mps 736 mmHg 74%
    18:00 +29°C° 0.4 mm 1 mps 736 mmHg 80%
    19:00 +27°C° 0.4 mm 1 mps 737 mmHg 86%
    20:00 +27°C° 0.1 mm 1 mps 737 mmHg 85%
    21:00 +26°C° 0.1 mm 2 mps 737 mmHg 85%
    22:00 +26°C° 0.1 mm 2 mps 738 mmHg 84%
    23:00 +26°C° 0 mm 2 mps 738 mmHg 83%

    27 November, Wednesday

    Time Temperature Precipitation Wind Pressure Humidity
    00:00 +26°C° 0 mm 2 mps 737 mmHg 81%
    01:00 +26°C° 0 mm 2 mps 737 mmHg 79%
    02:00 +26°C° 0 mm 1 mps 737 mmHg 79%
    03:00 +26°C° 0 mm 1 mps 737 mmHg 79%
    04:00 +25°C° 0 mm 1 mps 737 mmHg 80%
    05:00 +26°C° 0 mm 1 mps 737 mmHg 78%
    06:00 +27°C° 0 mm 1 mps 738 mmHg 77%
    07:00 +27°C° 0 mm 1 mps 738 mmHg 76%
    08:00 +29°C° 0 mm 1 mps 739 mmHg 70%
    09:00 +31°C° 0 mm 1 mps 739 mmHg 63%
    10:00 +34°C° 0 mm 1 mps 739 mmHg 57%
    11:00 +34°C° 0.4 mm 1 mps 738 mmHg 56%
    12:00 +35°C° 0.4 mm 1 mps 738 mmHg 55%
    13:00 +36°C° 0.4 mm 1 mps 737 mmHg 54%
    14:00 +35°C° 0.4 mm 1 mps 737 mmHg 57%
    15:00 +35°C° 0.4 mm 1 mps 736 mmHg 60%
    16:00 +34°C° 0.4 mm 1 mps 736 mmHg 62%
    17:00 +32°C° 0.2 mm 1 mps 736 mmHg 68%
    18:00 +30°C° 0.2 mm 2 mps 737 mmHg 75%
    19:00 +28°C° 0.2 mm 2 mps 737 mmHg 81%
    20:00 +27°C° 0.1 mm 2 mps 737 mmHg 81%
    21:00 +27°C° 0.1 mm 2 mps 738 mmHg 81%
    22:00 +26°C° 0.1 mm 2 mps 738 mmHg 81%
    23:00 +26°C° 0.1 mm 2 mps 738 mmHg 80%
    Show more